1489194000.22,55469,7.88,73090.8,-12.57,-24.21,-23.89,0,*6F
1489194001.44,55470,7.81,73078.8,-12.59,-22.11,-21.73,0,*6B
1489194002.7,55471,7.88,73082.5,-12.57,-22.87,-22.77,0,*6C
1489194003.98,55472,7.88,73082.3,-12.57,-22.93,-23.23,0,*6A
1489194005.25,55473,7.88,73090.5,-12.57,-23.03,-22.11,0,*63
1489194006.46,55474,7.88,73098.3,-12.55,-21.39,-19.51,0,*61
1489194007.68,55475,7.88,73090.3,-12.55,-19.47,-17.69,0,*67
1489194008.93,55476,7.88,73086.3,-12.55,-17.49,-17.63,0,*6E
1489194010.23,55477,7.88,73086.8,-12.53,-17.41,-17.97,0,*6A
1489194011.51,55478,7.88,73092.3,-12.55,-17.17,-17.79,0,*60
1489194012.76,55479,7.88,73088.3,-12.55,-17.21,-17.83,0,*61
1489194013.98,55480,7.88,73082.3,-12.55,-18.17,-19.13,0,*6A
1489194015.2,55481,7.88,73084.8,-12.55,-19.37,-19.13,0,*68
1489194016.45,55482,7.88,73090.3,-12.53,-18.99,-17.83,0,*6F
1489194017.72,55483,7.88,73090.5,-12.53,-18.07,-17.25,0,*65
1489194019.02,55484,7.88,73090.8,-12.53,-17.41,-16.65,0,*6A
1489194020.32,55485,7.81,73090.8,-12.53,-16.65,-15.85,0,*61
1489194021.57,55486,7.88,73090.3,-12.53,-15.99,-15.25,0,*68
1489194022.82,55487,7.88,73082.8,-12.53,-15.71,-15.11,0,*68
1489194024.08,55488,7.88,73078.3,-12.53,-15.35,-14.69,0,*69
1489194025.35,55489,7.88,73076.8,-12.53,-14.75,-14.29,0,*69
1489194026.57,55490,7.88,73092.8,-12.51,-14.33,-14.11,0,*6A
1489194027.82,55491,7.88,73092.3,-12.51,-14.23,-13.97,0,*63
1489194029.06,55492,7.88,73092.3,-12.51,-13.97,-13.93,0,*6C
1489194030.33,55493,7.88,73082.0,-12.49,-13.93,-14.05,0,*68
1489194031.59,55494,7.88,73086.5,-12.49,-13.79,-14.11,0,*6E
1489194032.86,55495,7.88,73090.5,-12.49,-13.79,-14.23,0,*6E
1489194034.15,55496,7.88,73080.0,-12.45,-13.79,-14.47,0,*63
1489194035.42,55497,7.88,73090.0,-12.45,-13.87,-14.89,0,*61
1489194036.68,55498,7.88,73078.0,-12.45,-14.15,-15.63,0,*67
1489194037.93,55499,7.88,73074.8,-12.45,-14.37,-15.53,0,*65
1489194039.17,55500,7.88,73080.8,-12.45,-14.65,-15.63,0,*60
1489194040.43,55501,7.88,73080.8,-12.45,-14.89,-15.89,0,*67
1489194041.67,55502,7.88,73078.0,-12.45,-15.15,-16.45,0,*63
1489194042.93,55503,7.88,73102.0,-12.45,-15.57,-16.89,0,*64
1489194044.2,55504,7.81,73084.3,-12.45,-16.17,-17.49,0,*69
1489194045.47,55505,7.88,73082.5,-12.43,-17.41,-18.31,0,*6C
1489194046.72,55506,7.88,73080.5,-12.43,-17.69,-18.31,0,*65
1489194047.93,55507,7.88,73084.3,-12.43,-17.49,-18.69,0,*6B
1489194049.17,55508,7.88,73088.3,-12.43,-18.17,-21.53,0,*63
1489194050.42,55509,7.88,73084.3,-12.45,-21.47,-23.75,0,*6D
1489194051.66,55510,7.81,73076.3,-12.45,-21.77,-22.57,0,*67
1489194052.94,55511,7.81,73074.3,-12.45,-21.53,-20.25,0,*67
1489194054.18,55512,7.88,73090.5,-12.43,-19.37,-18.59,0,*6B
1489194055.42,55513,7.88,73092.8,-12.45,-18.45,-20.73,0,*6B
1489194056.69,55514,7.88,73096.0,-12.45,-21.93,-26.17,0,*69
1489194057.98,55515,7.88,73098.0,-12.45,-25.81,-28.91,0,*6F
1489194059.25,55516,7.88,73088.0,-12.45,-27.99,-28.85,0,*62
1489194060.47,55517,7.88,73076.8,-12.43,-27.03,-26.65,0,*66
1489194061.69,55518,7.88,73082.3,-12.43,-25.39,-25.49,0,*6F
1489194062.96,55519,7.88,73078.0,-12.45,-28.25,-28.53,0,*6E
1489194064.23,55520,7.88,73068.0,-12.45,-28.75,-28.37,0,*63
1489194065.49,55521,7.88,73078.3,-12.45,-28.59,-26.65,0,*65
1489194066.79,55522,7.88,73068.0,-12.45,-25.55,-24.71,0,*60
1489194068.06,55523,7.88,73064.8,-12.45,-23.13,-21.97,0,*68
1489194069.35,55524,7.81,73070.5,-12.45,-21.23,-21.53,0,*66
1489194070.62,55525,7.88,73070.0,-12.45,-21.33,-22.57,0,*61
1489194071.86,55526,7.88,73068.0,-12.45,-22.27,-23.13,0,*65
1489194073.13,55527,7.81,73076.5,-12.45,-22.31,-24.51,0,*62
1489194074.41,55528,7.88,73086.8,-12.45,-24.71,-27.03,0,*6B
1489194075.65,55529,7.88,73082.3,-12.43,-27.71,-28.59,0,*6F
1489194076.94,55530,7.88,73060.8,-12.45,-25.03,-21.97,0,*6D
1489194078.2,55531,7.88,73050.8,-12.41,-19.75,-18.01,0,*63
1489194079.46,55532,7.81,73060.3,-12.43,-17.11,-17.21,0,*63
1489194080.71,55533,7.88,73070.3,-12.45,-17.83,-19.51,0,*66
1489194081.92,55534,7.88,73074.8,-12.43,-20.69,-22.11,0,*6B
1489194083.16,55535,7.88,73078.8,-12.43,-22.27,-21.97,0,*6F
1489194084.42,55536,7.88,73084.8,-12.43,-21.33,-21.03,0,*67
1489194085.67,55537,7.81,73072.8,-12.43,-19.99,-20.83,0,*64
1489194086.88,55538,7.88,73072.0,-12.43,-21.09,-22.03,0,*63
1489194088.15,55539,7.81,73070.3,-12.43,-21.53,-21.03,0,*6E
1489194089.36,55540,7.88,73074.3,-12.43,-20.09,-19.99,0,*66
1489194090.61,55541,7.88,73090.0,-12.43,-19.61,-20.39,0,*63
1489194091.86,55542,7.88,73084.8,-12.43,-19.23,-20.29,0,*67
1489194093.1,55543,7.88,73086.3,-12.43,-18.89,-20.69,0,*63
1489194094.38,55544,7.88,73090.0,-12.41,-20.99,-23.99,0,*60
1489194095.64,55545,7.88,73090.5,-12.43,-24.87,-26.97,0,*63
1489194096.93,55546,7.88,73088.8,-12.41,-28.21,-28.75,0,*60
1489194098.19,55547,7.88,73112.5,-12.41,-29.07,-29.73,0,*63
1489194099.43,55548,7.88,73108.8,-12.43,-30.45,-30.61,0,*6B
1489194100.67,55549,7.88,73122.8,-12.43,-31.33,-31.11,0,*6C
1489194101.92,55550,7.88,73116.8,-12.43,-31.85,-31.17,0,*6F
1489194103.13,55551,7.88,73098.8,-12.43,-31.01,-30.45,0,*64
1489194104.35,55552,7.88,73100.5,-12.43,-30.67,-29.57,0,*6D
1489194105.58,55553,7.88,73112.0,-12.43,-30.23,-29.39,0,*64
1489194106.82,55554,7.88,73112.0,-12.43,-29.73,-27.71,0,*6C
1489194108.11,55555,7.81,73110.3,-12.45,-27.35,-27.35,0,*67
1489194109.4,55556,7.88,73112.3,-12.45,-26.13,-26.13,0,*64
1489194110.67,55557,7.88,73114.3,-12.45,-25.81,-26.23,0,*6E
1489194111.94,55558,7.88,73118.0,-12.45,-25.49,-26.33,0,*64
1489194113.19,55559,7.88,73114.8,-12.45,-26.49,-25.23,0,*64
1489194114.45,55560,7.88,73114.0,-12.45,-25.03,-22.97,0,*6B
1489194115.75,55561,7.88,73104.3,-12.45,-22.17,-19.61,0,*69
1489194117.0,55562,7.88,73098.8,-12.45,-19.51,-17.83,0,*62
1489194118.3,55563,7.88,73082.8,-12.45,-17.25,-16.69,0,*6B
1489194119.57,55564,7.81,73078.8,-12.45,-16.37,-16.17,0,*67
1489194120.86,55565,7.88,73078.0,-12.45,-16.17,-16.31,0,*60
1489194122.11,55566,7.88,73066.3,-12.45,-16.45,-16.79,0,*68
1489194123.38,55567,7.88,73056.5,-12.45,-16.79,-17.11,0,*69
1489194124.65,55568,7.88,73064.8,-12.45,-16.89,-17.07,0,*6E
1489194125.92,55569,7.81,73094.8,-12.43,-16.13,-17.21,0,*6E
1489194127.21,55570,7.88,73092.8,-12.41,-15.89,-17.63,0,*62
1489194128.47,55571,7.88,73084.3,-12.41,-15.89,-17.49,0,*6B
1489194129.75,55572,7.88,73074.0,-12.41,-15.85,-16.65,0,*6B
1489194131.02,55573,7.81,73076.5,-12.41,-15.15,-15.43,0,*64
1489194132.27,55574,7.88,73092.0,-12.41,-14.75,-14.69,0,*6D
1489194133.51,55575,7.88,73092.3,-12.41,-14.29,-14.15,0,*6E
1489194134.81,55576,7.81,73084.8,-12.41,-14.01,-14.01,0,*62
1489194136.07,55577,7.88,73078.5,-12.41,-13.83,-13.73,0,*6C
1489194137.33,55578,7.88,73082.3,-12.41,-13.69,-13.61,0,*64
1489194138.56,55579,7.81,73064.0,-12.41,-13.69,-13.69,0,*6D
1489194139.77,55580,7.81,73090.3,-12.39,-13.55,-13.65,0,*67
1489194140.99,55581,7.81,73090.3,-12.39,-13.55,-13.65,0,*66
1489194142.2,55582,7.88,73088.0,-12.39,-13.55,-13.65,0,*65
1489194143.46,55583,7.81,73090.8,-12.35,-13.79,-13.93,0,*6F
1489194144.73,55584,7.81,73090.3,-12.35,-14.01,-14.15,0,*69
1489194145.95,55585,7.88,73098.8,-12.39,-14.29,-14.23,0,*6B
1489194147.23,55586,7.81,73096.3,-12.35,-14.47,-14.15,0,*69
1489194148.49,55587,7.81,73102.8,-12.35,-14.61,-14.05,0,*6D
1489194149.7,55588,7.88,73106.5,-12.33,-14.37,-13.93,0,*6F
1489194150.94,55589,7.88,73110.3,-12.33,-14.15,-13.79,0,*6A
1489194152.15,55590,7.81,73102.3,-12.33,-13.93,-13.65,0,*66
1489194153.36,55591,7.88,73100.5,-12.33,-13.73,-13.65,0,*69
1489194154.6,55592,7.88,73102.8,-12.31,-13.65,-13.51,0,*68
1489194155.84,55593,7.88,73090.8,-12.33,-13.61,-13.73,0,*6F
1489194157.1,55594,7.88,73088.8,-12.33,-13.87,-13.87,0,*6B
1489194158.33,55595,7.81,73086.5,-12.33,-13.93,-13.87,0,*6F
1489194159.56,55596,7.88,73092.0,-12.33,-13.93,-13.79,0,*6D
1489194160.82,55597,7.81,73080.3,-12.31,-13.93,-13.87,0,*6F
1489194162.09,55598,7.88,73082.0,-12.31,-13.93,-14.01,0,*69
1489194163.37,55599,7.88,73100.3,-12.31,-14.05,-14.37,0,*65
1489194164.62,55600,7.81,73112.3,-12.31,-14.23,-14.89,0,*67
1489194165.89,55601,7.88,73096.5,-12.31,-14.61,-15.39,0,*6A
1489194167.13,55602,7.81,73086.3,-12.29,-15.21,-16.03,0,*6F
1489194168.34,55603,7.81,73084.8,-12.29,-15.71,-16.79,0,*66
1489194169.61,55604,7.88,73096.8,-12.27,-16.51,-18.11,0,*6E
1489194170.89,55605,7.88,73088.5,-12.27,-17.63,-18.59,0,*63
1489194172.14,55606,7.88,73090.5,-12.29,-17.55,-18.59,0,*6B
1489194173.38,55607,7.81,73092.5,-12.27,-17.87,-19.03,0,*65
1489194174.62,55608,7.81,73098.0,-12.27,-18.45,-19.17,0,*6E
1489194175.91,55609,7.81,73092.8,-12.27,-18.31,-18.89,0,*6A
1489194177.12,55610,7.81,73094.0,-12.29,-18.25,-19.07,0,*6E
1489194178.34,55611,7.88,73098.0,-12.29,-18.45,-18.73,0,*6B
1489194179.59,55612,7.81,73094.5,-12.29,-18.31,-18.11,0,*6F
1489194180.83,55613,7.88,73084.0,-12.29,-17.69,-17.63,0,*66
1489194182.09,55614,7.88,73080.5,-12.29,-17.55,-17.25,0,*6C
1489194183.33,55615,7.88,73080.3,-12.29,-17.55,-17.69,0,*65
1489194184.57,55616,7.88,73078.5,-12.29,-18.17,-19.31,0,*6C
1489194185.78,55617,7.81,73090.8,-12.29,-19.03,-21.63,0,*65
1489194187.03,55618,7.81,73088.3,-12.27,-20.89,-24.05,0,*69
1489194188.3,55619,7.81,73092.0,-12.27,-22.31,-25.09,0,*64
1489194189.6,55620,7.88,73092.0,-12.27,-24.71,-26.81,0,*6F
1489194190.82,55621,7.81,73090.3,-12.29,-25.49,-26.23,0,*62
1489194192.04,55622,7.88,73086.3,-12.29,-25.09,-26.03,0,*67
1489194193.25,55623,7.81,73088.3,-12.29,-25.09,-26.03,0,*66
1489194194.53,55624,7.81,73088.8,-12.29,-25.55,-27.23,0,*6B
1489194195.77,55625,7.81,73090.0,-12.29,-26.49,-26.97,0,*6A
1489194197.0,55626,7.88,73092.0,-12.29,-26.03,-25.49,0,*67
1489194198.28,55627,7.81,73092.8,-12.29,-24.71,-23.29,0,*61
1489194199.51,55628,7.81,73086.8,-12.29,-23.39,-21.33,0,*6C
1489194200.78,55629,7.81,73090.5,-12.29,-21.03,-19.61,0,*6A
1489194201.99,55630,7.88,73096.5,-12.29,-19.07,-18.83,0,*60
1489194203.25,55631,7.81,73094.8,-12.29,-18.31,-18.59,0,*62
1489194204.49,55632,7.81,73088.8,-12.29,-18.83,-19.23,0,*64
1489194205.78,55633,7.81,73088.5,-12.27,-19.31,-19.23,0,*63
1489194207.01,55634,7.81,73098.3,-12.29,-19.17,-18.73,0,*6A
1489194208.25,55635,7.81,73094.0,-12.27,-18.73,-19.47,0,*60
1489194209.52,55636,7.81,73100.5,-12.27,-21.77,-23.23,0,*66
1489194210.81,55637,7.81,73102.3,-12.27,-24.87,-26.17,0,*6F
1489194212.09,55638,7.88,73108.3,-12.27,-28.21,-28.75,0,*6A
1489194213.36,55639,7.81,73104.3,-12.27,-29.01,-29.23,0,*6A
1489194214.63,55640,7.81,73092.3,-12.29,-29.17,-27.99,0,*62
1489194215.9,55641,7.88,73092.0,-12.29,-26.97,-26.97,0,*6B
1489194217.19,55642,7.81,73092.5,-12.27,-23.69,-22.47,0,*6B
1489194218.48,55643,7.81,73098.3,-12.27,-20.15,-19.61,0,*6E
1489194219.7,55644,7.88,73094.0,-12.29,-19.37,-19.17,0,*6C
1489194220.94,55645,7.81,73096.0,-12.29,-21.17,-21.97,0,*67
1489194222.19,55646,7.81,73094.3,-12.29,-24.83,-26.07,0,*62
1489194223.43,55647,7.81,73094.0,-12.27,-27.71,-28.85,0,*67
1489194224.67,55648,7.81,73086.8,-12.31,-28.97,-29.07,0,*63
1489194225.96,55649,7.81,73090.3,-12.31,-27.45,-28.47,0,*67
1489194227.23,55650,7.88,73092.3,-12.31,-30.27,-30.51,0,*63
1489194228.48,55651,7.81,73092.5,-12.29,-30.95,-30.67,0,*67
1489194229.79,55652,7.81,73094.3,-12.31,-31.23,-30.73,0,*64
1489194231.01,55653,7.81,73090.8,-12.29,-31.17,-30.67,0,*6E
1489194232.24,55654,7.81,73086.0,-12.29,-31.29,-30.67,0,*64
1489194233.5,55655,7.88,73084.3,-12.31,-31.01,-30.39,0,*6D
1489194234.8,55656,7.81,73080.8,-12.31,-30.17,-30.01,0,*63
1489194236.04,55657,7.81,73104.0,-12.31,-29.61,-29.83,0,*69
1489194237.31,55658,7.81,73092.0,-12.33,-30.01,-30.17,0,*6F
1489194238.55,55659,7.81,73096.3,-12.33,-30.51,-30.27,0,*68
1489194239.81,55660,7.81,73102.5,-12.33,-30.89,-30.55,0,*62
1489194241.09,55661,7.81,73094.0,-12.33,-31.23,-30.73,0,*66
1489194242.39,55662,7.81,73098.5,-12.31,-31.23,-30.73,0,*67
1489194243.64,55663,7.81,73100.5,-12.33,-31.23,-30.67,0,*61
1489194244.89,55664,7.81,73102.3,-12.33,-31.23,-30.67,0,*66
1489194246.14,55665,7.81,73094.8,-12.35,-31.17,-30.67,0,*66
1489194247.42,55666,7.88,73102.5,-12.39,-31.23,-30.77,0,*6F
1489194248.72,55667,7.81,73090.3,-12.35,-31.23,-30.51,0,*66
1489194250.0,55668,7.81,73094.5,-12.35,-31.23,-30.67,0,*6C
1489194251.27,55669,7.81,73100.0,-12.33,-31.23,-30.73,0,*6E
1489194252.53,55670,7.81,73104.0,-12.35,-31.17,-30.55,0,*63
1489194253.78,55671,7.88,73084.5,-12.39,-31.29,-30.61,0,*64
1489194255.05,55672,7.81,73090.8,-12.39,-31.23,-30.55,0,*6A
1489194256.32,55673,7.88,73086.8,-12.39,-30.61,-29.51,0,*60
1489194257.58,55674,7.81,73088.3,-12.39,-29.29,-26.77,0,*68
1489194258.85,55675,7.81,73094.8,-12.39,-25.97,-23.49,0,*68
1489194260.09,55676,7.81,73084.0,-12.39,-22.93,-22.73,0,*60
1489194261.34,55677,7.88,73094.3,-12.35,-22.97,-23.13,0,*6E
1489194262.55,55678,7.88,73092.3,-12.39,-21.73,-22.83,0,*6C
1489194263.82,55679,7.81,73100.0,-12.39,-21.87,-23.33,0,*6C
1489194265.08,55680,7.88,73088.3,-12.39,-25.45,-27.99,0,*64
1489194266.35,55681,7.81,73090.3,-12.39,-28.21,-29.39,0,*6E
1489194267.61,55682,7.81,73086.0,-12.35,-30.01,-30.27,0,*6D
1489194268.88,55683,7.81,73088.8,-12.35,-30.83,-30.39,0,*69
1489194270.14,55684,7.81,73088.0,-12.35,-31.05,-30.51,0,*6F
1489194271.38,55685,7.81,73090.3,-12.39,-30.77,-30.23,0,*63
1489194272.59,55686,7.81,73100.8,-12.39,-30.45,-30.33,0,*60
1489194273.86,55687,7.81,73108.8,-12.39,-30.77,-30.55,0,*60
1489194275.14,55688,7.81,73094.8,-12.39,-31.11,-30.61,0,*69
1489194276.41,55689,7.81,73086.3,-12.35,-31.17,-30.73,0,*61
1489194277.69,55690,7.81,73084.5,-12.39,-31.23,-30.73,0,*62
1489194278.96,55691,7.81,73100.8,-12.39,-31.23,-30.73,0,*63
1489194280.21,55692,7.81,73108.3,-12.39,-31.29,-30.73,0,*6A
1489194281.49,55693,7.81,73104.3,-12.39,-31.23,-30.73,0,*61
1489194282.74,55694,7.81,73102.3,-12.39,-31.29,-30.61,0,*6F
1489194284.0,55695,7.81,73096.5,-12.41,-31.29,-30.61,0,*61
1489194285.29,55696,7.88,73104.5,-12.41,-30.95,-30.05,0,*66
1489194286.51,55697,7.81,73080.3,-12.41,-30.45,-29.79,0,*69
1489194287.76,55698,7.81,73086.0,-12.39,-30.73,-30.33,0,*6A
1489194289.03,55699,7.81,73090.3,-12.41,-29.57,-28.21,0,*60
1489194290.27,55700,7.81,73076.5,-12.41,-28.53,-27.71,0,*6E
1489194291.56,55701,7.81,73090.5,-12.41,-28.25,-28.91,0,*6F
1489194292.83,55702,7.81,73102.8,-12.39,-29.35,-29.35,0,*6C
1489194294.04,55703,7.81,73106.8,-12.43,-29.07,-29.07,0,*60
1489194295.3,55704,7.81,73104.5,-12.43,-30.05,-29.73,0,*6E
1489194296.56,55705,7.81,73102.5,-12.41,-29.45,-29.01,0,*64
1489194297.83,55706,7.81,73106.0,-12.43,-28.75,-28.43,0,*60
1489194299.06,55707,7.81,73106.0,-12.41,-27.71,-27.89,0,*61
1489194300.31,55708,7.81,73110.3,-12.43,-26.97,-27.51,0,*60
1489194301.52,55709,7.81,73106.0,-12.43,-26.87,-25.39,0,*6C
1489194302.77,55710,7.81,73092.0,-12.43,-23.99,-23.09,0,*6B
1489194304.05,55711,7.81,73110.8,-12.41,-23.23,-25.03,0,*65
1489194305.33,55712,7.81,73102.0,-12.41,-27.35,-27.83,0,*6F
1489194306.59,55713,7.81,73088.5,-12.41,-27.71,-27.19,0,*6D
1489194307.83,55714,7.81,73092.5,-12.43,-28.15,-27.99,0,*6D
1489194309.07,55715,7.81,73098.8,-12.41,-27.89,-26.65,0,*66
1489194310.33,55716,7.81,73106.0,-12.41,-26.39,-24.41,0,*6B
1489194311.55,55717,7.81,73108.0,-12.43,-22.97,-22.03,0,*68
1489194312.81,55718,7.81,73104.0,-12.41,-20.99,-20.09,0,*61
1489194314.05,55719,7.81,73098.8,-12.41,-19.07,-18.73,0,*6B
1489194315.31,55720,7.81,73096.5,-12.41,-17.69,-18.01,0,*62
1489194316.55,55721,7.81,73098.5,-12.39,-17.63,-17.87,0,*67
1489194317.76,55722,7.81,73100.3,-12.39,-16.45,-15.99,0,*6C
1489194319.06,55723,7.81,73094.0,-12.35,-15.35,-15.39,0,*6F
1489194320.33,55724,7.81,73092.5,-12.39,-14.79,-14.83,0,*6D
1489194321.55,55725,7.81,73094.8,-12.39,-14.37,-14.65,0,*6E
1489194322.82,55726,7.81,73094.8,-12.35,-14.37,-14.79,0,*6C
1489194324.03,55727,7.81,73098.8,-12.39,-15.07,-15.07,0,*6B
1489194325.27,55728,7.81,73096.0,-12.35,-15.25,-15.07,0,*68
1489194326.52,55729,7.81,73102.5,-12.35,-15.25,-14.89,0,*6E
1489194327.76,55730,7.81,73098.0,-12.35,-14.61,-14.33,0,*66
1489194329.05,55731,7.81,73092.8,-12.35,-14.05,-14.05,0,*60
1489194330.33,55732,7.81,73096.3,-12.35,-14.05,-14.23,0,*67
1489194331.6,55733,7.81,73092.0,-12.33,-14.01,-14.75,0,*67
1489194332.84,55734,7.81,73092.3,-12.33,-14.51,-15.07,0,*61
1489194334.13,55735,7.81,73088.0,-12.31,-14.93,-15.21,0,*68
1489194335.34,55736,7.81,73090.5,-12.33,-15.95,-15.63,0,*68
1489194336.62,55737,7.81,73084.5,-12.31,-16.51,-15.75,0,*67
1489194337.89,55738,7.81,73100.3,-12.31,-16.69,-15.75,0,*63
1489194339.16,55739,7.81,73096.5,-12.31,-15.95,-15.01,0,*61
1489194340.42,55740,7.81,73106.0,-12.31,-15.21,-14.61,0,*67
1489194341.71,55741,7.81,73100.5,-12.31,-14.75,-14.51,0,*65
1489194342.98,55742,7.81,73108.0,-12.31,-14.79,-14.61,0,*69
1489194344.25,55743,7.81,73112.0,-12.31,-14.79,-14.89,0,*6E
1489194345.52,55744,7.81,73106.0,-12.31,-14.93,-14.89,0,*6D
1489194346.78,55745,7.81,73086.3,-12.31,-14.93,-14.61,0,*6A
1489194348.02,55746,7.81,73084.5,-12.29,-14.55,-14.29,0,*66
1489194349.26,55747,7.81,73076.5,-12.29,-14.43,-14.19,0,*63
1489194350.54,55748,7.81,73084.3,-12.29,-14.47,-14.83,0,*6B
1489194351.8,55749,7.81,73084.5,-12.29,-14.75,-16.51,0,*66
1489194353.05,55750,7.81,73100.8,-12.29,-15.71,-17.11,0,*6E
1489194354.33,55751,7.81,73094.3,-12.27,-16.31,-17.21,0,*65
1489194355.61,55752,7.81,73102.0,-12.29,-16.65,-17.11,0,*6A
1489194356.87,55753,7.81,73094.3,-12.27,-16.65,-16.79,0,*6A
1489194358.12,55754,7.81,73090.3,-12.27,-15.71,-15.71,0,*60
1489194359.36,55755,7.81,73088.3,-12.29,-14.89,-14.75,0,*6C
1489194360.59,55756,7.81,73098.8,-12.27,-14.29,-14.11,0,*69
1489194361.88,55757,7.81,73084.0,-12.27,-13.87,-13.83,0,*67
1489194363.11,55758,7.81,73086.8,-12.23,-13.65,-13.69,0,*64
1489194364.35,55759,7.81,73108.5,-12.23,-13.51,-13.55,0,*6D
1489194365.58,55760,7.81,73102.8,-12.23,-13.43,-13.43,0,*63
1489194366.82,55761,7.81,73080.5,-12.23,-13.43,-13.51,0,*61
1489194368.08,55762,7.81,73088.8,-12.23,-13.29,-13.51,0,*6E
1489194369.35,55763,7.81,73098.3,-12.23,-13.37,-13.51,0,*60
1489194370.61,55764,7.81,73094.8,-12.23,-13.37,-13.55,0,*63
1489194371.87,55765,7.81,73094.5,-12.23,-13.37,-13.55,0,*62
1489194373.14,55766,7.81,73102.3,-12.23,-13.51,-13.83,0,*6A
1489194374.37,55767,7.81,73100.0,-12.23,-13.69,-14.11,0,*6C
1489194375.63,55768,7.81,73096.0,-12.23,-13.93,-14.43,0,*61
1489194376.89,55769,7.81,73094.8,-12.23,-14.29,-14.93,0,*6B
1489194378.15,55770,7.81,73090.5,-12.23,-15.29,-16.13,0,*68
1489194379.4,55771,7.81,73094.5,-12.23,-16.59,-16.55,0,*6F
1489194380.63,55772,7.81,73096.8,-12.21,-16.23,-15.63,0,*65
1489194381.88,55773,7.81,73098.3,-12.21,-15.39,-15.49,0,*64
1489194383.11,55774,7.81,73094.0,-12.23,-15.29,-16.45,0,*6F
1489194384.35,55775,7.81,73092.8,-12.21,-15.35,-16.41,0,*65
1489194385.62,55776,7.81,73098.0,-12.21,-16.13,-17.55,0,*65
1489194386.9,55777,7.81,73104.3,-12.19,-17.11,-18.59,0,*6F
1489194388.11,55778,7.81,73120.8,-12.21,-17.87,-19.99,0,*69
1489194389.32,55779,7.81,73118.8,-12.21,-18.79,-21.43,0,*6A
1489194390.58,55780,7.81,73110.5,-12.21,-20.19,-23.29,0,*6F
1489194391.85,55781,7.81,73098.0,-12.21,-20.99,-23.19,0,*65
1489194393.08,55782,7.81,73098.0,-12.19,-22.07,-23.59,0,*6C
1489194394.34,55783,7.81,73104.5,-12.21,-21.67,-23.19,0,*67
1489194395.62,55784,7.81,73108.3,-12.21,-22.17,-22.47,0,*6E
1489194396.89,55785,7.81,73104.8,-12.19,-20.79,-20.63,0,*6A
1489194398.09,55786,7.81,73096.5,-12.21,-20.29,-19.99,0,*68
1489194399.31,55787,7.81,73106.3,-12.21,-19.13,-19.99,0,*6A
1489194400.58,55788,7.81,73106.0,-12.19,-19.37,-21.57,0,*61
1489194401.82,55789,7.81,73094.5,-12.17,-20.39,-21.83,0,*63
1489194403.06,55790,7.81,73094.8,-12.21,-18.73,-20.99,0,*61
1489194404.3,55791,7.81,73102.3,-12.21,-19.99,-23.65,0,*65
1489194405.53,55792,7.81,73114.0,-12.21,-21.57,-24.31,0,*69
1489194406.78,55793,7.81,73110.5,-12.21,-21.77,-23.19,0,*67
1489194408.01,55794,7.81,73112.0,-12.21,-21.09,-20.83,0,*69
1489194409.23,55795,7.81,73110.3,-12.21,-19.37,-18.79,0,*60
1489194410.48,55796,7.81,73112.0,-12.21,-17.79,-17.17,0,*60
1489194411.75,55797,7.81,73108.5,-12.21,-16.51,-16.69,0,*62
1489194412.99,55798,7.81,73108.8,-12.19,-16.41,-16.79,0,*66
1489194414.23,55799,7.81,73104.0,-12.21,-16.89,-17.17,0,*61
1489194415.47,55800,7.81,73092.8,-12.21,-17.59,-17.87,0,*6B
1489194416.74,55801,7.81,73098.5,-12.21,-18.31,-18.35,0,*6D
1489194417.94,55802,7.81,73108.0,-12.21,-18.83,-19.07,0,*67
1489194419.21,55803,7.81,73110.8,-12.19,-20.43,-20.15,0,*63
1489194420.45,55804,7.81,73104.0,-12.19,-21.73,-18.73,0,*6D
1489194421.69,55805,7.81,73090.3,-12.21,-18.99,-16.65,0,*60
1489194422.93,55806,7.81,73092.3,-12.21,-17.55,-15.63,0,*69
1489194424.2,55807,7.81,73092.5,-12.21,-16.27,-14.79,0,*66
1489194425.46,55808,7.81,73102.0,-12.21,-15.21,-14.47,0,*61
1489194426.69,55809,7.81,73096.8,-12.19,-14.89,-14.33,0,*6B
1489194427.93,55810,7.81,73102.5,-12.21,-14.79,-14.37,0,*63
1489194429.17,55811,7.81,73092.5,-12.17,-14.89,-14.55,0,*6C
1489194430.43,55812,7.81,73100.0,-12.19,-14.89,-14.79,0,*6F
1489194431.72,55813,7.81,73096.8,-12.19,-14.97,-14.97,0,*61
1489194432.98,55814,7.81,73092.8,-12.17,-15.01,-14.83,0,*63
1489194434.18,55815,7.81,73094.5,-12.17,-15.07,-14.69,0,*60
1489194435.45,55816,7.81,73092.3,-12.19,-15.07,-14.79,0,*6C
1489194436.68,55817,7.81,73100.3,-12.19,-15.07,-14.65,0,*60
1489194437.93,55818,7.81,73088.8,-12.17,-14.89,-14.47,0,*66
1489194439.19,55819,7.81,73076.5,-12.17,-15.43,-14.83,0,*68
1489194440.41,55820,7.81,73088.5,-12.13,-15.71,-14.65,0,*6F
1489194441.64,55821,7.81,73094.0,-12.13,-15.01,-14.23,0,*6B
1489194442.9,55822,7.81,73088.8,-12.17,-14.75,-14.05,0,*6A
1489194444.14,55823,7.81,73090.5,-12.17,-14.89,-14.01,0,*6C
1489194445.4,55824,7.81,73088.5,-12.17,-14.51,-13.87,0,*67
1489194446.64,55825,7.81,73090.3,-12.17,-14.29,-13.87,0,*69
1489194447.88,55826,7.81,73090.3,-12.17,-14.29,-14.01,0,*63
1489194449.14,55827,7.81,73090.3,-12.17,-14.43,-13.87,0,*67
1489194450.4,55828,7.81,73082.5,-12.13,-14.51,-13.83,0,*6B
1489194451.67,55829,7.81,73066.5,-12.13,-14.43,-13.97,0,*6C
1489194452.91,55830,7.81,73068.3,-12.17,-14.29,-14.05,0,*60
1489194454.16,55831,7.81,73082.0,-12.13,-14.11,-14.01,0,*6A
1489194455.4,55832,7.81,73090.5,-12.13,-14.11,-14.01,0,*69
1489194456.64,55833,7.88,73084.5,-12.13,-14.55,-14.37,0,*6D
1489194457.86,55834,7.81,73076.5,-12.13,-14.37,-14.15,0,*6E
1489194459.08,55835,7.81,73072.3,-12.13,-14.29,-14.15,0,*60
1489194460.35,55836,7.81,73064.0,-12.11,-14.15,-14.01,0,*6B
1489194461.62,55837,7.81,73076.0,-12.11,-13.97,-14.11,0,*66
1489194462.87,55838,7.81,73076.8,-12.11,-14.15,-14.65,0,*67
1489194464.15,55839,7.81,73082.5,-12.11,-14.83,-15.25,0,*6C
1489194465.41,55840,7.81,73078.8,-12.11,-15.57,-15.67,0,*6C
1489194466.68,55841,7.81,73070.3,-12.11,-16.27,-15.29,0,*63
1489194467.97,55842,7.81,73064.8,-12.11,-15.43,-14.51,0,*6F
1489194469.2,55843,7.81,73062.5,-12.11,-14.69,-14.15,0,*67
1489194470.44,55844,7.81,73068.0,-12.09,-14.23,-13.83,0,*6F
1489194471.73,55845,7.81,73072.5,-12.11,-14.01,-13.83,0,*67
1489194473.0,55846,7.81,73078.5,-12.09,-14.01,-13.97,0,*68
1489194474.28,55847,7.81,73094.8,-12.11,-14.15,-14.01,0,*6D
1489194475.52,55848,7.81,73084.5,-12.09,-14.55,-14.37,0,*6A
1489194476.75,55849,7.81,73096.0,-12.09,-14.55,-14.23,0,*6E
1489194477.99,55850,7.81,73104.5,-12.09,-14.51,-14.37,0,*67
1489194479.24,55851,7.81,73084.3,-12.09,-14.51,-14.23,0,*63
1489194480.44,55852,7.81,73086.0,-12.09,-14.23,-13.93,0,*69
1489194481.71,55853,7.81,73074.3,-12.11,-13.83,-13.69,0,*69
1489194482.95,55854,7.81,73082.8,-12.11,-13.69,-13.55,0,*65
1489194484.21,55855,7.81,73078.8,-12.07,-13.61,-13.47,0,*68
1489194485.48,55856,7.81,73090.5,-12.07,-13.51,-13.37,0,*6F
1489194486.72,55857,7.81,73096.3,-12.07,-13.51,-13.47,0,*69
1489194487.98,55858,7.81,73096.3,-12.07,-13.47,-13.37,0,*66
1489194489.2,55859,7.81,73090.5,-12.07,-13.47,-13.47,0,*60
1489194490.44,55860,7.81,73076.0,-12.05,-13.47,-13.33,0,*6B
1489194491.71,55861,7.81,73080.0,-12.07,-13.37,-13.23,0,*6E
1489194492.95,55862,7.81,73092.3,-12.07,-13.23,-13.23,0,*68
1489194494.22,55863,7.81,73086.8,-12.07,-13.23,-13.33,0,*68
1489194495.49,55864,7.81,73072.0,-12.07,-13.23,-13.33,0,*6F
1489194496.76,55865,7.81,73086.0,-12.07,-13.19,-13.33,0,*67
1489194498.0,55866,7.81,73088.8,-12.05,-13.19,-13.37,0,*62
1489194499.26,55867,7.81,73086.8,-12.07,-13.33,-13.47,0,*6E
1489194500.49,55868,7.81,73092.3,-12.07,-13.47,-13.65,0,*62